星链-2474 (STARLINK-2474 )

导读

STARLINK-2474是美国SpaceX公司星链(Starlink)星座中的一颗低轨通信卫星,于2021年4月7日发射升空。星链星座旨在全球范围内提供高速宽带互联网服务,尤其覆盖偏远地区。该卫星采用平板设计、氪工质霍尔推进器,具备自主避撞能力,寿命末期会主动离轨坠入大气层烧毁,单星设计寿命约5-7年,是SpaceX构建巨型低轨通信网络的组成部分。

基本信息
目录编号:
48132
目录名称:
STARLINK-2474
国际标识:
2021-027AS
轨道中心:
EARTH
卫星名称:
星链-2474
卫星全名:
星链-2474 (STARLINK-2474 )
卫星状态:
在轨 (已飞行1976 天)
发射日期:
2021-04-07 UTC
国别 :
美国 (US)
星等 :
--
轨道信息
数据来源 国际轨道数据 AOE轨道数据
星历时间 2026-09-04T05:31:01+0800
19小时前
查看轨道信息
2026-09-02T15:00:00+0800
2天前
查看轨道信息
半长轴 6848.828km 6848.847km
偏心率 0.0001014 0.0001382
轨道倾角 53.161° 53.168°
近地点辐角 90.467° 78.543°
升交点赤经 58.467° 65.941°
平近点角 269.645° 67.118°
近地点 469.996km 469.763km
远地点 471.386km 471.657km
周期 94.012分钟 94.013分钟
每日圈数 15.317167 15.317101
详细信息
固有亮度:
5
最大亮度:
2.5
卫星平台:
Starlink V1.0
覆盖范围:
全球
运营商:
太空探索技术公司
运营商所在国:
美国
制造商(研发单位):
太空探索技术公司
制造商所在国:
美国
使用方式:
暂无
卫星简介
星链(Starlink)计划是由太空探索技术公司(SpaceX)提出的一个巨型低轨卫星互联网星座项目,计划在2019年至2024年间在太空搭建由约1.2万颗卫星组成的“星链”网络,其中1584颗将部署在地球上空550千米处的近地轨道,并从2020年开始工作。该卫星仍在工作。
2D轨道图
3D轨道图
轨道高度分析图
轨道倾角分析图
轨道综合分析图
查看轨道综合分析图